Tracking 17844 objects as of 25-August-2016
HD Live streaming from Space Station
objects crossing your sky now

GLOBALSTAR M059

Track GLOBALSTAR M059 now!
10-day predictions
GLOBALSTAR M059 is classified as:


NORAD ID: 25944
Int'l Code: 1999-058B
Perigee: 1,687.8 km
Apogee: 1,689.0 km
Inclination: 52.0 °
Period: 120.0 minutes
Semi major axis: 8059 km
RCS: 2.6566 m2 (large)
Launch date: October 18, 1999
Source: Globalstar (GLOB)
Launch site: TYURATAM MISSILE AND SPACE COMPLEX (TTMTR)
Your satellite tracking list
Your tracking list is empty





NASA's NSSDC Master Catalog

Two Line Element Set (TLE):
1 25944U 99058B   16237.49422902 -.00000073  00000-0  16807-3 0  9992
2 25944  52.0004 274.1805 0000782 136.7575   5.1507 11.99912242776395
Source of the keplerian elements: AFSPC

N2YO: 636